Location: Wildlife_Club
(35.6000°N, 81.4330°W)
Time: 03:34:43
(UTC-04:00)

A-11 Canister half - Pass Details

Date: 15 August 2020
Orbit: 1514 x 1686 km, 47.2° (Epoch: 23 September)

Event Time Altitude Azimuth Distance (km) Brightness Sun altitude
Rises 20:55:37 0° 289° (WNW) 4,767 14.0 -8.7°
Reaches altitude 10° 20:58:56 10° 297° (WNW) 3,807 12.8 -9.3°
Maximum altitude 21:08:05 43° 6° (N) 2,173 10.0 -11.0°
Drops below altitude 10° 21:17:31 10° 76° (ENE) 3,923 10.7 -12.7°
Enters shadow 21:19:11 - 80° (E) 4,398 10.9 -13.0°
